Weather History for Findlay, OH

Change the Weather History Date:

Thursday, March 28, 2013

  Actual Average Record
Temperature  
Mean Temperature 37 °F -  
Max Temperature 50 °F 53 °F 74 °F (1989)
Min Temperature 26 °F 33 °F 11 °F (1955)
Degree Days  
Heating Degree Days 28    
Moisture  
Dew Point 25 °F    
Average Humidity 63    
Maximum Humidity 81    
Minimum Humidity 44    
Precipitation  
Precipitation 0.00 in - - ()
Sea Level Pressure  
Sea Level Pressure 30.26 in    
Wind  
Wind Speed 10 mph (West)    
Max Wind Speed 16 mph    
Max Gust Speed 21 mph    
Visibility 10 miles    
Events      
Averages and records for this station are not official NWS values.
T = Trace of Precipitation, MM = Missing Value Source: NWS Daily Summary

Daily Weather History Graph

Daily Weather History Graph

Search for Another Location

Airport:

Trip Planner

Search our weather history database for the weather conditions in past years. The results will help you decide how hot, cold, wet, or windy it might be!

Date:

Astronomy

Mar. 28, 2013 Rise Set
Actual Time 7:24 AM EDT 7:55 PM EDT
Civil Twilight 6:56 AM EDT 8:23 PM EDT
Nautical Twilight 6:24 AM EDT 8:55 PM EDT
Astronomical Twilight 5:50 AM EDT 9:29 PM EDT
Moon 9:47 PM EDT (3/28) 7:50 AM EDT (3/28)
Length of Visible Light 13h 26m
Length of Day
12h 31m
Full, 98% of the Moon is Illuminated
Mar 28
Full
Apr 3
Last Quarter
Apr 10
New
Apr 18
First Quarter
Apr 25
Full

Hourly Weather History & Observations

Time (EDT) Temp. Windchill Dew Point Humidity Pressure Visibility Wind Dir Wind Speed Gust Speed Precip Events Conditions
12:53 AM 30.9 °F 23.5 °F 24.1 °F 76% 30.25 in 10.0 mi West 8.1 mph - N/A   Clear
1:53 AM 30.0 °F 22.4 °F 23.0 °F 75% 30.24 in 10.0 mi West 8.1 mph - N/A   Clear
2:53 AM 30.0 °F 22.4 °F 21.9 °F 72% 30.24 in 10.0 mi West 8.1 mph - N/A   Clear
3:53 AM 30.0 °F 21.7 °F 21.9 °F 72% 30.24 in 10.0 mi West 9.2 mph - N/A   Clear
4:53 AM 28.9 °F 21.1 °F 21.0 °F 72% 30.25 in 10.0 mi West 8.1 mph - N/A   Clear
5:53 AM 27.0 °F 18.7 °F 21.0 °F 78% 30.25 in 10.0 mi West 8.1 mph - N/A   Clear
6:53 AM 26.1 °F 16.8 °F 21.0 °F 81% 30.26 in 10.0 mi West 9.2 mph - N/A   Clear
7:53 AM 28.9 °F 20.4 °F 21.0 °F 72% 30.27 in 10.0 mi West 9.2 mph - N/A   Clear
8:53 AM 32.0 °F 23.6 °F 23.0 °F 69% 30.28 in 10.0 mi West 10.4 mph - N/A   Clear
9:53 AM 37.0 °F 29.3 °F 25.0 °F 62% 30.29 in 10.0 mi WNW 11.5 mph - N/A   Clear
10:53 AM 39.9 °F 32.5 °F 26.1 °F 58% 30.30 in 10.0 mi WNW 12.7 mph - N/A   Clear
11:53 AM 43.0 °F 36.0 °F 27.0 °F 53% 30.30 in 10.0 mi WNW 13.8 mph - N/A   Clear
12:53 PM 46.0 °F 39.3 °F 28.0 °F 50% 30.28 in 10.0 mi WNW 16.1 mph 20.7 mph N/A   Clear
1:53 PM 48.0 °F - 28.0 °F 46% 30.27 in 10.0 mi WNW 10.4 mph 19.6 mph N/A   Partly Cloudy
2:53 PM 48.0 °F - 27.0 °F 44% 30.26 in 10.0 mi West 10.4 mph - N/A   Partly Cloudy
3:53 PM 48.0 °F - 27.0 °F 44% 30.25 in 10.0 mi WNW 11.5 mph 17.3 mph N/A   Mostly Cloudy
4:53 PM 48.0 °F - 27.0 °F 44% 30.24 in 10.0 mi West 12.7 mph - N/A   Overcast
5:53 PM 48.0 °F - 30.0 °F 50% 30.24 in 10.0 mi WSW 12.7 mph - N/A   Overcast
6:53 PM 46.0 °F 40.6 °F 30.0 °F 54% 30.25 in 10.0 mi WSW 11.5 mph - N/A   Mostly Cloudy
7:53 PM 42.1 °F 36.1 °F 28.9 °F 60% 30.26 in 10.0 mi WSW 10.4 mph - N/A   Clear
8:53 PM 39.0 °F 33.4 °F 28.0 °F 65% 30.27 in 10.0 mi SW 8.1 mph - N/A   Clear
9:53 PM 37.0 °F 31.6 °F 27.0 °F 67% 30.28 in 10.0 mi WSW 6.9 mph - N/A   Clear
10:53 PM 37.0 °F 31.6 °F 27.0 °F 67% 30.28 in 10.0 mi WSW 6.9 mph - N/A   Clear
11:53 PM 35.1 °F 27.4 °F 27.0 °F 72% 30.29 in 10.0 mi West 10.4 mph - N/A   Clear